Погода в Клину

Россия / Московская область     56°19′54″N   36°43′43″E
темп.,
°C
ветер,
м/с
пор.,
м/с
влажн.,
%
обл.,
%
осадки,
мм/ч
давл.,
гПа
погр.,
м
9 мая, вс
вс900:00+5ссз61296100 2.6 1004847
03:00+3сз51198100 4.8 1006878
06:00+2сз61397100 1.5 1008775
09:00+2сз61193100 1.7 1011879
12:00+6сз61177100 0.1 10121249
15:00+10сз61051100 0.1 10142210
18:00+10ссз5105192 0.0 10162071
21:00+5сз310705 0.0 1020242
10 мая, пн
пн1000:00+2сз38835 0.0 1023143
03:00+1сз27840 0.0 1025120
06:00+2ссз26715 0.0 1027159
09:00+8с35410 0.0 1028685
12:00+12ссв34335 0.0 10281455
15:00+14с34330 0.0 10271481
18:00+13ссв24460 0.0 10281058
21:00+6в22740 0.0 102912
11 мая, вт
вт1100:00+5в12770 0.0 103011
03:00+4св22795 0.0 103016
06:00+5всв26745 0.0 1030140
09:00+12всв47505 0.0 1030569
12:00+16всв464043 0.0 1029952
15:00+18всв454146 0.0 10281008
18:00+17всв36573 0.0 1027774
21:00+11в25880 0.0 102887
12 мая, ср
ср1200:00+9всв26933 0.0 1027109
03:00+9всв2696100 0.0 1027104
06:00+10св310922 0.0 1026261
09:00+17всв5116923 0.0 1024812
12:00+15вюв5117848 0.0 10241085
15:00+17юв5107240 0.4 10231198
18:00+16юв3775100 0.2 1022967
21:00+14вюв61492100 2.2 10221035
13 мая, чт
чт1300:00+13вюв51294100 1.1 1021883
03:00+13вюв3997100 1.3 1021550
06:00+13юв399797 1.3 1020650
09:00+15юв487820 1.4 1020884
12:00+18юв585540 0.0 10201690
15:00+20юв585473 0.1 10191891
18:00+18юв47735 0.4 1018868
21:00+13юв269398 0.5 1018119